When you browse on this site, cookies collect data to enhance your experience and personalize the content and advertising you see.
Visit our Privacy Policy to learn more. By continuing to use the site, you agree to this use of cookies and data.
  • Em Portugal
  • Lista de países
  • Para 7 dias
  • Temperatura da água
  • Mapas de satélite
  • Mapa do tempo
  • Widgets de tempo
  • user-avatar
    Iniciar Sessão

    Previsão horária em Ocice

    Hoje, 19 Dezembro, Quarta-feira

    Tempo Temperatura Precipitação Vento Pressão Humidade
    00:00 -1°C° 0 mm 3 m/s 749 mmHg 91%
    01:00 -1°C° 0 mm 3 m/s 749 mmHg 91%
    02:00 -1°C° 0 mm 3 m/s 748 mmHg 90%
    03:00 -1°C° 0 mm 3 m/s 748 mmHg 90%
    04:00 -1°C° 0 mm 3 m/s 748 mmHg 89%
    05:00 -2°C° 0 mm 4 m/s 747 mmHg 88%
    06:00 -2°C° 0 mm 4 m/s 747 mmHg 87%
    07:00 -2°C° 0 mm 4 m/s 747 mmHg 86%
    08:00 -2°C° 0 mm 4 m/s 747 mmHg 83%
    09:00 -1°C° 0 mm 5 m/s 747 mmHg 80%
    10:00 -1°C° 0 mm 5 m/s 747 mmHg 77%
    11:00 0°C° 0 mm 5 m/s 746 mmHg 75%
    12:00 0°C° 0 mm 5 m/s 746 mmHg 74%
    13:00 0°C° 0 mm 4 m/s 746 mmHg 72%
    14:00 0°C° 0 mm 4 m/s 746 mmHg 74%
    15:00 0°C° 0 mm 4 m/s 745 mmHg 76%
    16:00 -1°C° 0 mm 4 m/s 745 mmHg 78%
    17:00 -1°C° 0 mm 4 m/s 745 mmHg 78%
    18:00 -1°C° 0 mm 4 m/s 745 mmHg 79%
    19:00 -1°C° 0 mm 4 m/s 745 mmHg 79%
    20:00 -1°C° 0.2 mm 4 m/s 745 mmHg 80%
    21:00 0°C° 0.2 mm 3 m/s 744 mmHg 81%
    22:00 0°C° 0.2 mm 3 m/s 744 mmHg 82%
    23:00 0°C° 0.3 mm 3 m/s 744 mmHg 83%

    Amanhã, 20 Dezembro, Quinta-feira

    Tempo Temperatura Precipitação Vento Pressão Humidade
    00:00 -1°C° 0.3 mm 3 m/s 744 mmHg 84%
    01:00 -1°C° 0.3 mm 3 m/s 744 mmHg 85%
    02:00 -1°C° 0.4 mm 3 m/s 744 mmHg 86%
    03:00 -1°C° 0.4 mm 3 m/s 744 mmHg 87%
    04:00 -1°C° 0.4 mm 3 m/s 744 mmHg 88%
    05:00 -1°C° 0.5 mm 3 m/s 744 mmHg 89%
    06:00 -1°C° 0.5 mm 3 m/s 744 mmHg 89%
    07:00 -1°C° 0.5 mm 3 m/s 744 mmHg 90%
    08:00 -1°C° 0.3 mm 3 m/s 744 mmHg 89%
    09:00 -1°C° 0.3 mm 3 m/s 744 mmHg 89%
    10:00 -1°C° 0.3 mm 3 m/s 744 mmHg 88%
    11:00 0°C° 0.3 mm 3 m/s 744 mmHg 88%
    12:00 0°C° 0.3 mm 3 m/s 744 mmHg 88%
    13:00 0°C° 0.3 mm 3 m/s 744 mmHg 88%
    14:00 0°C° 0.1 mm 3 m/s 744 mmHg 88%
    15:00 0°C° 0.1 mm 3 m/s 744 mmHg 89%
    16:00 0°C° 0.1 mm 3 m/s 744 mmHg 89%
    17:00 0°C° 0 mm 3 m/s 744 mmHg 89%
    18:00 +1°C° 0 mm 3 m/s 744 mmHg 89%
    19:00 0°C° 0 mm 4 m/s 744 mmHg 89%
    20:00 0°C° 0 mm 4 m/s 744 mmHg 89%
    21:00 0°C° 0 mm 4 m/s 744 mmHg 90%
    22:00 +1°C° 0 mm 4 m/s 744 mmHg 90%
    23:00 0°C° 0 mm 4 m/s 744 mmHg 90%

    Depois de amanhã, 21 Dezembro, Sexta-feira

    Tempo Temperatura Precipitação Vento Pressão Humidade
    00:00 0°C° 0 mm 4 m/s 744 mmHg 90%
    01:00 0°C° 0 mm 4 m/s 744 mmHg 89%
    02:00 0°C° 0 mm 4 m/s 744 mmHg 89%
    03:00 0°C° 0 mm 4 m/s 743 mmHg 88%
    04:00 0°C° 0 mm 4 m/s 743 mmHg 88%
    05:00 +1°C° 0.1 mm 4 m/s 743 mmHg 88%
    06:00 +1°C° 0.1 mm 4 m/s 742 mmHg 88%
    07:00 +1°C° 0.1 mm 4 m/s 742 mmHg 88%
    08:00 +1°C° 0 mm 4 m/s 742 mmHg 88%
    09:00 +1°C° 0 mm 4 m/s 741 mmHg 87%
    10:00 +2°C° 0 mm 5 m/s 741 mmHg 87%
    11:00 +2°C° 0.2 mm 5 m/s 740 mmHg 86%
    12:00 +2°C° 0.2 mm 5 m/s 739 mmHg 86%
    13:00 +2°C° 0.2 mm 5 m/s 739 mmHg 85%
    14:00 +2°C° 0.9 mm 6 m/s 738 mmHg 85%
    15:00 +2°C° 0.9 mm 6 m/s 737 mmHg 85%
    16:00 +2°C° 0.9 mm 6 m/s 736 mmHg 84%
    17:00 +3°C° 1 mm 6 m/s 735 mmHg 85%
    18:00 +4°C° 1 mm 6 m/s 734 mmHg 85%
    19:00 +5°C° 1 mm 6 m/s 734 mmHg 86%
    20:00 +5°C° 0.1 mm 6 m/s 734 mmHg 85%
    21:00 +5°C° 0.1 mm 6 m/s 734 mmHg 84%
    22:00 +5°C° 0.1 mm 6 m/s 734 mmHg 83%
    23:00 +5°C° 0.1 mm 6 m/s 735 mmHg 83%

    22 Dezembro, Sábado

    Tempo Temperatura Precipitação Vento Pressão Humidade
    00:00 +5°C° 0.1 mm 6 m/s 735 mmHg 83%
    01:00 +4°C° 0.1 mm 6 m/s 736 mmHg 82%
    02:00 +4°C° 0 mm 6 m/s 736 mmHg 82%
    03:00 +4°C° 0 mm 6 m/s 736 mmHg 83%
    04:00 +5°C° 0 mm 5 m/s 736 mmHg 83%
    05:00 +5°C° 0 mm 5 m/s 736 mmHg 83%
    06:00 +5°C° 0 mm 5 m/s 735 mmHg 83%
    07:00 +5°C° 0 mm 4 m/s 735 mmHg 83%
    08:00 +5°C° 0.1 mm 5 m/s 735 mmHg 84%
    09:00 +5°C° 0.1 mm 5 m/s 734 mmHg 86%
    10:00 +6°C° 0.1 mm 5 m/s 734 mmHg 87%
    11:00 +5°C° 0.9 mm 6 m/s 734 mmHg 86%
    12:00 +6°C° 0.9 mm 7 m/s 733 mmHg 84%
    13:00 +6°C° 0.9 mm 8 m/s 733 mmHg 83%
    14:00 +6°C° 0.2 mm 7 m/s 734 mmHg 83%
    15:00 +6°C° 0.2 mm 7 m/s 735 mmHg 82%
    16:00 +5°C° 0.2 mm 6 m/s 735 mmHg 82%
    17:00 +5°C° 0 mm 6 m/s 736 mmHg 82%
    18:00 +5°C° 0 mm 6 m/s 736 mmHg 82%
    19:00 +5°C° 0 mm 6 m/s 737 mmHg 81%
    20:00 +4°C° 0.1 mm 6 m/s 737 mmHg 81%
    21:00 +4°C° 0.1 mm 6 m/s 737 mmHg 80%
    22:00 +4°C° 0.1 mm 6 m/s 738 mmHg 80%
    23:00 +4°C° 0.5 mm 7 m/s 738 mmHg 81%

    23 Dezembro, Domingo

    Tempo Temperatura Precipitação Vento Pressão Humidade
    00:00 +4°C° 0.5 mm 7 m/s 739 mmHg 81%
    01:00 +4°C° 0.5 mm 8 m/s 740 mmHg 82%
    02:00 +4°C° 0.2 mm 7 m/s 740 mmHg 82%
    03:00 +4°C° 0.2 mm 7 m/s 741 mmHg 83%
    04:00 +4°C° 0.2 mm 6 m/s 741 mmHg 83%
    05:00 +4°C° 0.1 mm 6 m/s 741 mmHg 83%
    06:00 +3°C° 0.1 mm 6 m/s 742 mmHg 84%
    07:00 +3°C° 0.1 mm 6 m/s 742 mmHg 84%
    08:00 +3°C° 0.1 mm 6 m/s 742 mmHg 83%
    09:00 +3°C° 0.1 mm 6 m/s 743 mmHg 83%
    10:00 +3°C° 0.1 mm 6 m/s 743 mmHg 82%
    11:00 +4°C° 0.1 mm 6 m/s 743 mmHg 81%
    12:00 +4°C° 0.1 mm 6 m/s 743 mmHg 80%
    13:00 +4°C° 0.1 mm 6 m/s 743 mmHg 79%
    14:00 +4°C° 0.2 mm 6 m/s 743 mmHg 79%
    15:00 +4°C° 0.2 mm 6 m/s 743 mmHg 80%
    16:00 +3°C° 0.2 mm 6 m/s 744 mmHg 81%
    17:00 +3°C° 0.2 mm 6 m/s 744 mmHg 81%
    18:00 +3°C° 0.2 mm 6 m/s 744 mmHg 82%
    19:00 +3°C° 0.2 mm 6 m/s 744 mmHg 82%
    20:00 +3°C° 0.1 mm 6 m/s 745 mmHg 82%
    21:00 +3°C° 0.1 mm 6 m/s 745 mmHg 83%
    22:00 +3°C° 0.1 mm 7 m/s 745 mmHg 83%
    23:00 +3°C° 0.1 mm 6 m/s 746 mmHg 84%

    24 Dezembro, Segunda-feira

    Tempo Temperatura Precipitação Vento Pressão Humidade
    00:00 +3°C° 0.1 mm 6 m/s 746 mmHg 86%
    01:00 +2°C° 0.1 mm 5 m/s 746 mmHg 87%
    02:00 +2°C° 0.1 mm 5 m/s 747 mmHg 88%
    03:00 +3°C° 0.1 mm 4 m/s 747 mmHg 89%
    04:00 +3°C° 0.1 mm 4 m/s 747 mmHg 90%
    05:00 +3°C° 0.1 mm 3 m/s 748 mmHg 91%
    06:00 +3°C° 0.1 mm 3 m/s 748 mmHg 91%
    07:00 +2°C° 0.1 mm 3 m/s 748 mmHg 92%
    08:00 +3°C° 0.1 mm 3 m/s 749 mmHg 90%
    09:00 +3°C° 0.1 mm 4 m/s 749 mmHg 88%
    10:00 +3°C° 0.1 mm 4 m/s 750 mmHg 86%
    11:00 +3°C° 0.1 mm 4 m/s 750 mmHg 84%
    12:00 +4°C° 0.1 mm 4 m/s 750 mmHg 82%
    13:00 +4°C° 0.1 mm 4 m/s 750 mmHg 80%
    14:00 +4°C° 0.1 mm 4 m/s 750 mmHg 82%
    15:00 +3°C° 0.1 mm 3 m/s 750 mmHg 84%
    16:00 +3°C° 0.1 mm 3 m/s 750 mmHg 86%
    17:00 +3°C° 0 mm 3 m/s 751 mmHg 87%
    18:00 +3°C° 0 mm 3 m/s 751 mmHg 87%
    19:00 +2°C° 0 mm 3 m/s 751 mmHg 88%
    20:00 +2°C° 0 mm 3 m/s 751 mmHg 89%
    21:00 +3°C° 0 mm 2 m/s 751 mmHg 89%
    22:00 +3°C° 0 mm 2 m/s 751 mmHg 90%
    23:00 +2°C° 0 mm 2 m/s 751 mmHg 91%
    Mostrar mais